Location: Rumah Sambob
(2.9167°N, 113.9167°E)
Time: 19:25:26
(UTC+00:00)

Meteor 2-9 Rocket - Pass Details

Date: 06 June 2020
Orbit: 791 x 895 km, 81.3° (Epoch: 11 July)

Event Time Altitude Azimuth Distance (km) Brightness Sun altitude
Rises 12:22:44 0° 354° (N) 3,276 7.7 -26.1°
Reaches altitude 10° 12:25:04 10° 354° (N) 2,353 6.9 -26.6°
Enters shadow 12:30:18 87° 317° (NW) 807 4.0 -27.7°
